Preview of NWS' New Version of Forecast
This preview is not operational and should not be used for support decisions.

Regional Weather Roundup (RWR)

Issued by National Weather Service (NWS)

                            
000
ASUS43 KBIS 200110
RWRND 

NORTH DAKOTA REGIONAL WEATHER ROUNDUP
NATIONAL WEATHER SERVICE BISMARCK ND
800 PM CDT MON AUG 19 2019

NOTE: "FAIR" INDICATES FEW OR NO CLOUDS BELOW 12,000 FEET WITH NO
SIGNIFICANT WEATHER AND/OR OBSTRUCTIONS TO VISIBILITY.


NDZ001>003-009>011-017-200200-
NORTHWEST NORTH DAKOTA
  
CITY           SKY/WX    TMP DP  RH WIND       PRES   REMARKS
WILLISTON      CLEAR     86  53  32 NW13      29.78R                  
MINOT          CLEAR     82  53  36 SE7       29.76F                  
MINOT AFB      CLEAR     80  55  41 S8        29.74F                  
$$
 
NDZ018>021-031>035-040>046-200200-
SOUTHWEST NORTH DAKOTA
  
CITY           SKY/WX    TMP DP  RH WIND       PRES   REMARKS
BISMARCK       CLEAR     77  66  68 SE6       29.82S                  
DICKINSON      PTCLDY    86  56  35 NW16G32   29.81R                  
GARRISON         N/A     80  59  48 S10       29.79F                  
HETTINGER ARPT CLEAR     82  66  58 SE9       29.83F                  
$$
 
NDZ004>008-012>016-024-026-027-054-200200-
NORTHEAST NORTH DAKOTA
  
CITY           SKY/WX    TMP DP  RH WIND       PRES   REMARKS
GRAND FORKS    PTCLDY    79  62  56 S5        29.82S                  
GRND FRKS AFB  CLEAR     78  64  61 S7        29.83S                  
DEVILS LAKE    CLEAR     78  61  55 S8        29.83F                  
$$
 
NDZ022-023-025-028>030-036>039-047>053-200200-
SOUTHEAST NORTH DAKOTA
  
CITY           SKY/WX    TMP DP  RH WIND       PRES   REMARKS
FARGO          CLEAR     79  67  66 S7        29.84S                  
JAMESTOWN      CLEAR     77  66  68 SE8       29.84F                  
$$